Regional Weather Roundup
Issued by NWS

Home | Current Version | Previous Version | Graphics & Text | Print | Product List | Glossary On
Versions: 1 2 3 4 5 6 7 8 9 10 11 12 13 14 15 16 17 18 19 20 21 22 23 24 25 26 27 28 29 30 31 32 33 34 35 36 37 38 39 40 41 42 43 44 45 46 47 48 49 50
123
ASUS45 KBOU 172210
RWRCO

WEATHER ROUNDUP FOR COLORADO
NATIONAL WEATHER SERVICE DENVER/BOULDER CO
300 PM MST SUN DEC 17 2017

NOTE: "FAIR" INDICATES FEW OR NO CLOUDS BELOW 12000 FEET WITH NO
SIGNIFICANT WEATHER AND/OR OBSTRUCTIONS TO VISIBILITY.

COZ001>005-013-030-031-172300-
...NORTHWEST COLORADO...

CITY           SKY/WX    TMP DP  RH WIND       PRES   REMARKS
CRAIG          FAIR      32  20  61 SW3       30.04S
HAYDEN         CLOUDY    30  21  69 NW6       30.04S WCI  24
MEEKER         FAIR      38  19  46 W7        30.01S
RABBIT EARS PA FOG       18  14  86 W10G21    29.96R VSB 1/2 WCI   6
STEAMBOAT SPGS CLOUDY    30  20  68 CALM      30.02S
WALDEN         FAIR      30  16  55 SW13      29.97S WCI  20
$$

COZ006>008-011-172300-
...WEST CENTRAL VALLEYS...

CITY           SKY/WX    TMP DP  RH WIND       PRES   REMARKS
GRAND JUNCTION FAIR      43  11  27 W5        30.02S
MONTROSE       FAIR      41   6  23 NW6       30.02S
EAGLE          FAIR      38  10  31 CALM      29.98F
RIFLE          FAIR      43  11  27 CALM      30.00S
DELTA          FAIR      45   6  20 SW6       30.01F
NUCLA          FAIR      43   0  16 NW3       30.04S
$$

COZ017>023-064>068-172300-
...SOUTHWEST COLORADO...

CITY           SKY/WX    TMP DP  RH WIND       PRES   REMARKS
DURANGO        FAIR      47   5  18 S10       29.96F
CORTEZ         FAIR      47   7  19 SW9       29.99R
PAGOSA SPRINGS FAIR      44  -1  15 SW5       29.99R
TELLURIDE      FAIR      36   0  22 W15       30.01R
WOLF CREEK PAS FAIR      27   0  31 S14G20    30.07R WCI  15
$$

COZ009-010-012-014-032>034-037-058>063-172300-
...CENTRAL COLORADO...

CITY           SKY/WX    TMP DP  RH WIND       PRES   REMARKS
ASPEN          FAIR      37   7  28 N10       29.95R
BUENA VISTA    FAIR      43   0  16 W18       29.91R
COPPER MTN     NOT AVBL
BERTHOUD PASS  FAIR      14   3  62 NW32G40   29.90R WCI  -7
COTTONWOOD PAS FAIR      39  -4  16 W16G28    29.93S
GUNNISON       FAIR      41   6  23 CALM      29.97R
KREMMLING      FAIR      39  18  41 NW6       29.98S
LEADVILLE      FAIR      31  -2  24 NW15G22   29.93R WCI  20
MONARCH PASS   FAIR      23  -2  33 W45G54    30.05R WCI   2
SALIDA         FAIR      46  -4  12 W16G24    29.98S
SUNLIGHT       FAIR      23   3  42 SW10G18   30.03R WCI  12
WILKERSON PASS FAIR      28   0  29 SW15G23   29.95R WCI  17
$$

COZ069>075-172300-
...SAN LUIS VALLEY/SANGRE DE CRISTO MOUNTAINS...

CITY           SKY/WX    TMP DP  RH WIND       PRES   REMARKS
ALAMOSA        FAIR      44  11  26 N3        29.94F
DEL NORTE      FAIR      39   8  27 E7        29.95S
LA VETA PASS   FAIR      34   5  29 S13G26      N/A  WCI  25
SAGUACHE       FAIR      37  10  32 SE9       29.96R
$$

COZ035-036-038>040-172300-
...NORTHERN COLORADO FRONT RANGE...

CITY           SKY/WX    TMP DP  RH WIND       PRES   REMARKS
DENVER INTL AP PTSUNNY   41  23  48 SE5       29.87F
DMNS CITY PARK NOT AVBL
AURORA         PTSUNNY   39  23  52 SE5       29.87S
FRONT RANGE AP PTSUNNY   41  25  52 E12       29.89F
ERIE MUNI ARPT FAIR      40  25  55 CALM      29.93S
BOULDER MUN AP FAIR      41  27  56 CALM      29.86F
CENTENNIAL     PTSUNNY   38  23  55 SE3       29.87R
BROOMFIELD     PTSUNNY   39  27  60 VRB3      29.88S
FORT COLLINS   FAIR      35  26  69 CALM      29.89F
LONGMONT       FAIR      42  27  54 NE5       29.91R
$$

COZ041-046-047-076>085-087-088-172300-
...PIKES PEAK/PALMER DIVIDE AND SOUTHERN FOOTHILLS...

CITY           SKY/WX    TMP DP  RH WIND       PRES   REMARKS
COLO. SPRINGS  PTSUNNY   32  22  66 S3        29.91F
A. F. ACADEMY  FAIR      31  21  66 S8        29.89R WCI  23
SCHRIEVER AFB  FAIR      32  22  67 SW5       29.91F WCI  27
CHEYENNE MTN   PTSUNNY   29  23  75 SE5       29.84S WCI  24
ELLICOTT         N/A    N/A N/A N/A SW6       29.90F
FALCON         FAIR      30  21  69 S8        29.91S WCI  22
FORT CARSON    FAIR      35  23  61 SE5       29.90F WCI  31
LIMON          FAIR      37  23  56 VRB7      29.90F
MONUMENT HILL  FAIR      34  23  64 SE6       29.88S WCI  29
CANON CITY     FAIR      37  27  65 NE3       29.91S
WALSENBURG     FAIR      43  25  49 CALM      29.91S
TRINIDAD       PTSUNNY   39  24  55 E6        29.92S
$$

COZ042>045-048>051-090-091-172300-
...NORTHEAST COLORADO...

CITY           SKY/WX    TMP DP  RH WIND       PRES   REMARKS
GREELEY ARPT   FAIR      38  26  62 S5        29.90F
AKRON          FAIR      36  25  64 SW3       29.90F
BURLINGTON     FAIR      37  26  64 CALM      29.94F
WRAY           FAIR      41  28  60 SW7       29.94S
YUMA           FAIR      36  27  69 SW7       29.92S
STERLING       FAIR      43  28  56 W6        29.89F
HOLYOKE        FAIR      45  27  49 W5        29.92S
FORT MORGAN    FAIR      40  24  53 SW6       29.90F
$$

COZ086-089-092>099-172300-
...SOUTHEAST COLORADO...

CITY           SKY/WX    TMP DP  RH WIND       PRES   REMARKS
PUEBLO         FAIR      37  25  61 S3        29.93S
LA JUNTA       FAIR      40  26  57 S3        29.95S
LAMAR          FAIR      43  25  49 E3        29.95S
SPRINGFIELD      N/A     41  27  57 NE3       29.95S
$$




USA.gov is the U.S. government's official web portal to all federal, state and local government web resources and services.